Zurück zum Katalog

CZ-6A DEB

AktivPO
NORAD 60896·DEBRIS·🇨🇳 China

Gestartet Aug 6, 2024 von Taiyuan Satellite Launch Center

Loading…

Nächste Überflüge (nächste 24 Stunden)

TLE

AktuellSource: Space-Track

Epoche: Sep 14, 2026, 13:09 UTC

1 60896U 24140LB  26257.54834274  .00000764  00000-0  28681-3 0  9994
2 60896  88.3509 203.6281 0057258 142.9371 217.5800 14.29662133108032

Verfolge CZ-6A DEB in Echtzeit mit AllMySat

Download on the App Store